Find TSAT-1A

NORAD ID: 59442 Int'l Des: 2024-066 Owner: TASL Country: IN operational
LEOCIRCULAR

实时位置

正在加载3D地球...

关于 TSAT-1A

正在加载描述...

即将过境

Passes for default location (London). Set your location on the main map for personalized predictions.

高度历史

Loading altitude history...

两行轨道根数

1 59442U 24066A 26107.31853628 .00007333 00000-0 22580-3 0 9990
2 59442 45.6151 92.9135 0009799 122.9296 237.2543 15.34309617112427
Epoch: Apr 17, 2026 • Age: 7 hours

当前状态

高度 461.9 km
速度 7.64 km/s
星下点 45.19°N, 110.37°E
发射日期 Apr 7, 2024
运行时间 2 years
类型 other

技术详情

分类 Payload
质量 42.00 kg
干质量 38.00 kg
总质量 42.00 kg
长度 0.80 m
直径 0.50 m
跨度 0.80 m
形状 Box
制造商 URUGUS
平台类型 Newsat V
阶段状态 In Orbit
所有者/国家 TASL/IN

Most Searched